This is the latest recevied weather packets stored in our database for station/object W4ZHA. If no packets are shown the sender has not sent any weather packets the latest 1 day(s).
| Time | Temp. | Humidity | Pressure | Rain* | Wind** | Luminosity | Snow |
|---|---|---|---|---|---|---|---|
| 1778021434 | 22.78° C | 54% | 1011 hPa | 0 mm | 0 m/s | 60 W/m² | - |
| 1778021131 | 22.22° C | 55% | 1011 hPa | 0 mm | 0 m/s | 57 W/m² | - |
| 1778020828 | 22.78° C | 56% | 1011.3 hPa | 0 mm | 0 m/s | 51 W/m² | - |
| 1778020525 | 22.78° C | 55% | 1011.3 hPa | 0 mm | 0 m/s | 30 W/m² | - |
| 1778020221 | 22.78° C | 54% | 1011.3 hPa | 0 mm | 0 m/s | 26 W/m² | - |
| 1778019918 | 22.78° C | 55% | 1011.3 hPa | 0 mm | 0 m/s | 30 W/m² | - |
| 1778019614 | 22.78° C | 55% | 1011.3 hPa | 0 mm | 0 m/s | 36 W/m² | - |
| 1778019311 | 23.33° C | 54% | 1011.3 hPa | 0 mm | 0 m/s | 41 W/m² | - |
| 1778019008 | 23.33° C | 54% | 1011.3 hPa | 0 mm | 0 m/s | 47 W/m² | - |
| 1778018705 | 23.33° C | 53% | 1011.6 hPa | 0 mm | 0 m/s | 49 W/m² | - |
| 1778018403 | 23.33° C | 52% | 1011.6 hPa | 0 mm | 0 m/s | 47 W/m² | - |
| 1778018101 | 23.33° C | 52% | 1011.6 hPa | 0 mm | 0 m/s | 60 W/m² | - |
| 1778017798 | 23.33° C | 53% | 1011.6 hPa | 0 mm | 0 m/s | 77 W/m² | - |
| 1778017496 | 23.33° C | 52% | 1011.6 hPa | 0 mm | 0 m/s | 72 W/m² | - |
| 1778017193 | 23.33° C | 52% | 1011.3 hPa | 0 mm | 0 m/s | 83 W/m² | - |
| 1778016891 | 23.33° C | 52% | 1011.6 hPa | 0 mm | 0 m/s | 111 W/m² | - |
| 1778016587 | 23.33° C | 53% | 1011.6 hPa | 0 mm | 0 m/s | 129 W/m² | - |
| 1778016283 | 22.78° C | 53% | 1011.6 hPa | 0 mm | 0 m/s | 94 W/m² | - |
| 1778015980 | 23.33° C | 49% | 1011.6 hPa | 0 mm | 0 m/s | 104 W/m² | - |
| 1778015678 | 23.33° C | 48% | 1011.6 hPa | 0 mm | 0 m/s | 74 W/m² | - |
| 1778015374 | 23.89° C | 47% | 1012 hPa | 0 mm | 0 m/s | 69 W/m² | - |
| 1778015071 | 23.89° C | 46% | 1012 hPa | 0 mm | 0 m/s | 70 W/m² | - |
| 1778014767 | 24.44° C | 46% | 1012 hPa | 0 mm | 0 m/s | 97 W/m² | - |
| 1778014466 | 24.44° C | 46% | 1012 hPa | 0 mm | 0 m/s | 114 W/m² | - |
| 1778014163 | 24.44° C | 46% | 1012 hPa | 0 mm | 0 m/s | 116 W/m² | - |
* Rain latest hour (hover to see other rain measurements)
** Current wind speed in m/s (hover to see current wind gust speed)